Stations météo

réclame
Mon MeteoGroup
Lerida, Espagne (8171): Température de l'air & dewpoint: 17.04.2018 03:00:00 - 23.04.2018 03:00:00 (CEST)Lerida, Espagne (8171): Vitesse du vent: 17.04.2018 03:00:00 - 23.04.2018 03:00:00 (CEST)Lerida, Espagne (8171): Direction du vent: 17.04.2018 03:00:00 - 23.04.2018 03:00:00 (CEST)Lerida, Espagne (8171): reduced air pressure: 17.04.2018 03:00:00 - 23.04.2018 03:00:00 (CEST)Lerida, Espagne (8171): visibility: 17.04.2018 03:00:00 - 23.04.2018 03:00:00 (CEST)Lerida, Espagne (8171): Quantités de précipitations: 17.04.2018 03:00:00 - 23.04.2018 03:00:00 (CEST)
Date & Time tt [°C] td [°C] ff [km/h] ff [knt] dd ppp [hPa] vv [km] rr [mm]
23.04.2018 03:00:00 13,5 9,2 8 4 NNE 1018,7 20 0,0
23.04.2018 02:00:00 14,1 9,5 5 3 NE 1018,8 19 -
23.04.2018 01:00:00 15,2 9,8 8 4 NE 1018,9 20 0,0
23.04.2018 00:00:00 16,0 10,1 11 6 NNE 1018,8 20 0,0
22.04.2018 23:00:00 16,8 8,2 8 4 NE 1018,7 20 -
22.04.2018 22:00:00 18,4 7,8 5 3 SW 1018,3 20 0,0
22.04.2018 21:00:00 20,0 7,4 8 4 S 1017,1 20 0,0
22.04.2018 20:00:00 22,0 5,8 11 6 ESE 1015,4 25 -
22.04.2018 19:00:00 23,0 7,5 16 9 SSW 1016,0 20 0,0
22.04.2018 18:00:00 24,2 10,5 11 6 S 1015,3 20 0,0
22.04.2018 17:00:00 24,2 11,8 9 5 SW 1015,4 30 -
22.04.2018 16:00:00 23,9 10,9 5 3 W 1015,8 20 0,0
22.04.2018 15:00:00 24,2 12,2 9 5 SSE 1016,6 20 0,0
22.04.2018 14:00:00 23,7 11,4 5 3 ESE 1017,0 30 -
22.04.2018 13:00:00 21,5 10,9 4 2 SSW 1018,1 20 0,0
22.04.2018 12:00:00 20,4 9,9 4 2 WNW 1018,5 20 0,0
22.04.2018 11:00:00 18,3 9,4 4 2 NE 1018,8 25 -
22.04.2018 10:00:00 15,4 9,3 4 2 E 1019,1 20 0,0
22.04.2018 09:00:00 12,4 9,0 5 3 NE 1018,9 19 0,0
22.04.2018 08:00:00 11,2 8,6 4 2 NE 1018,5 18 -
22.04.2018 07:00:00 11,3 8,7 8 4 NNE 1018,3 17 0,0
22.04.2018 06:00:00 11,8 8,8 8 4 NE 1018,4 16 0,0
22.04.2018 05:00:00 12,2 9,0 5 3 NNE 1019,0 17 -
22.04.2018 04:00:00 12,7 9,1 8 4 NE 1019,1 18 0,0
22.04.2018 03:00:00 13,0 9,4 9 5 NNE 1019,4 19 0,0
22.04.2018 02:00:00 13,7 9,9 8 4 NNE 1019,7 19 -
22.04.2018 01:00:00 14,7 10,3 8 4 NE 1019,6 20 0,0
22.04.2018 00:00:00 15,5 10,0 5 3 NE 1019,5 20 0,0
21.04.2018 23:00:00 16,4 9,8 8 4 N 1019,6 20 -
21.04.2018 22:00:00 17,4 9,8 8 4 WSW 1019,3 20 0,0
21.04.2018 21:00:00 19,0 9,5 8 4 SW 1018,4 20 0,0
21.04.2018 20:00:00 20,8 9,1 8 4 SSW 1017,6 20 -
21.04.2018 19:00:00 23,4 10,4 11 6 SW 1017,4 20 0,0
21.04.2018 18:00:00 24,8 10,3 8 4 ESE 1017,3 20 0,0
21.04.2018 17:00:00 25,7 11,5 5 3 SSE 1017,6 35 -
21.04.2018 16:00:00 25,2 11,0 5 3 SSE 1018,4 19 0,0
21.04.2018 15:00:00 24,5 10,4 4 2 SSW 1019,4 20 0,0
21.04.2018 14:00:00 23,5 9,5 5 3 WSW 1019,9 25 -
21.04.2018 13:00:00 22,1 10,6 4 2 SSW 1020,5 20 0,0
21.04.2018 12:00:00 19,9 10,6 4 2 NE 1021,1 20 0,0
21.04.2018 11:00:00 17,3 10,7 8 4 E 1021,3 20 -
21.04.2018 10:00:00 14,5 10,1 9 5 NE 1021,6 15 0,0
21.04.2018 09:00:00 11,7 9,1 9 5 NE 1021,9 14 0,0
21.04.2018 08:00:00 9,4 8,2 8 4 NE 1022,0 10 -
21.04.2018 07:00:00 9,1 7,9 5 3 ENE 1021,9 10 0,0
21.04.2018 06:00:00 9,8 8,4 4 2 NE 1021,8 11 0,0
21.04.2018 05:00:00 10,2 8,6 5 3 NNE 1021,9 12 -
21.04.2018 04:00:00 10,9 9,0 5 3 NE 1022,0 14 0,0
21.04.2018 03:00:00 11,6 9,3 4 2 NNE 1022,4 14 0,0
21.04.2018 02:00:00 12,4 9,6 4 2 NNE 1022,5 14 -
21.04.2018 01:00:00 13,2 9,8 2 1 N 1022,5 16 0,0
21.04.2018 00:00:00 14,5 10,1 2 1 NNE 1022,5 15 0,0
20.04.2018 23:00:00 15,2 10,0 5 3 N 1022,5 16 -
20.04.2018 22:00:00 16,8 9,7 5 3 SW 1022,0 18 0,0
20.04.2018 21:00:00 18,5 9,6 5 3 SW 1021,3 17 0,0
20.04.2018 20:00:00 20,8 9,4 11 6 SSW 1020,8 30 -
20.04.2018 19:00:00 23,2 9,9 11 6 S 1020,4 20 0,0
20.04.2018 18:00:00 24,2 10,8 9 5 SSE 1020,3 20 0,0
20.04.2018 17:00:00 22,9 7,8 9 5 ESE 1020,6 40 -
20.04.2018 16:00:00 24,2 10,8 5 3 SSW 1021,1 20 0,0
20.04.2018 15:00:00 24,1 12,4 9 5 SSE 1021,5 20 0,0
20.04.2018 14:00:00 22,1 12,9 9 5 SW 1022,0 20 -
20.04.2018 13:00:00 21,9 11,0 11 6 E 1022,7 20 0,0
20.04.2018 12:00:00 20,6 11,0 9 5 ENE 1023,1 20 0,0
20.04.2018 11:00:00 18,4 11,0 5 3 E 1023,4 25 -
20.04.2018 10:00:00 15,2 10,4 5 3 NE 1023,8 20 0,0
20.04.2018 09:00:00 12,8 9,2 9 5 NE 1023,9 19 0,0
20.04.2018 08:00:00 10,7 8,5 8 4 NNE 1024,1 17 -
20.04.2018 07:00:00 10,0 7,9 5 3 NNE 1023,9 15 0,0
20.04.2018 06:00:00 10,4 8,3 8 4 NNE 1023,8 14 0,0
20.04.2018 05:00:00 11,1 8,5 8 4 NNE 1024,0 15 -
20.04.2018 04:00:00 12,1 8,9 5 3 NE 1023,9 16 0,0
20.04.2018 03:00:00 12,9 9,3 4 2 ENE 1024,4 18 0,0
20.04.2018 02:00:00 14,0 9,8 2 1 N 1024,6 17 -
20.04.2018 01:00:00 15,0 10,0 4 2 NE 1024,4 20 0,0
20.04.2018 00:00:00 16,4 10,3 5 3 NE 1024,2 20 0,0
19.04.2018 23:00:00 17,0 10,6 5 3 NNE 1024,1 20 -
19.04.2018 22:00:00 18,4 9,7 4 2 NNW 1023,5 20 0,0
19.04.2018 21:00:00 20,5 9,4 4 2 SSW 1022,8 20 0,0
19.04.2018 20:00:00 22,5 9,3 13 7 ESE 1022,3 30 -
19.04.2018 19:00:00 23,5 9,5 11 6 SE 1022,1 20 0,0
19.04.2018 18:00:00 24,2 9,4 11 6 SE 1022,1 20 0,0
19.04.2018 17:00:00 24,9 11,1 11 6 S 1022,4 35 -
19.04.2018 16:00:00 24,5 8,4 15 8 ESE 1022,6 20 0,0
19.04.2018 15:00:00 24,2 11,2 8 4 ESE 1023,3 20 0,0
19.04.2018 14:00:00 23,3 9,7 16 9 E 1023,8 40 -
19.04.2018 13:00:00 22,4 9,9 11 6 ENE 1024,4 20 0,0
19.04.2018 12:00:00 20,8 10,6 9 5 ENE 1025,1 20 0,0
19.04.2018 11:00:00 19,5 9,7 8 4 E 1025,3 30 -
19.04.2018 10:00:00 17,5 10,1 8 4 ENE 1025,4 20 0,0
19.04.2018 09:00:00 14,1 9,1 8 4 NE 1025,6 20 0,0
19.04.2018 08:00:00 11,3 8,7 5 3 NE 1025,7 19 -
19.04.2018 07:00:00 10,7 8,8 9 5 NE 1025,4 15 0,0
19.04.2018 06:00:00 11,3 9,4 2 1 WNW 1025,3 15 0,0
19.04.2018 05:00:00 12,6 9,6 5 3 N 1024,9 17 -
19.04.2018 04:00:00 13,6 10,0 8 4 NE 1025,1 19 0,0
19.04.2018 03:00:00 14,4 10,0 8 4 NE 1025,3 20 0,0
19.04.2018 02:00:00 15,0 10,0 8 4 NNE 1025,9 20 -
19.04.2018 01:00:00 15,7 9,6 8 4 NNE 1026,0 20 0,0
19.04.2018 00:00:00 15,9 9,6 8 4 NE 1025,9 20 0,0
18.04.2018 23:00:00 16,8 9,5 8 4 NE 1025,8 20 -
18.04.2018 22:00:00 18,2 9,3 5 3 NE 1025,1 19 0,0
18.04.2018 21:00:00 20,2 8,2 5 3 S 1024,0 20 0,0
18.04.2018 20:00:00 23,2 8,5 13 7 S 1023,5 40 -
18.04.2018 19:00:00 25,1 9,8 11 6 SSW 1023,0 20 0,0
18.04.2018 18:00:00 25,8 9,2 11 6 SSW 1022,9 20 0,0
18.04.2018 17:00:00 26,7 12,4 9 5 SSW 1022,9 40 -
18.04.2018 16:00:00 25,8 8,7 4 2 N 1023,2 20 0,0
18.04.2018 15:00:00 26,0 10,6 8 4 NE 1023,7 20 0,0
18.04.2018 14:00:00 25,0 10,8 8 4 E 1024,2 45 -
18.04.2018 13:00:00 23,6 12,9 8 4 ENE 1024,9 20 0,0
18.04.2018 12:00:00 21,2 13,6 4 2 NE 1025,8 20 0,0
18.04.2018 11:00:00 18,3 12,3 5 3 ENE 1026,1 45 -
18.04.2018 10:00:00 15,5 11,3 4 2 E 1026,1 20 0,0
18.04.2018 09:00:00 13,0 10,7 4 2 ENE 1026,2 20 0,0
18.04.2018 08:00:00 10,2 9,4 4 2 ENE 1026,2 13 -
18.04.2018 07:00:00 9,2 8,3 2 1 NE 1026,0 11 0,0
18.04.2018 06:00:00 10,4 9,0 2 1 N 1025,6 16 0,0
18.04.2018 05:00:00 11,2 9,6 5 3 NE 1025,4 14 -
18.04.2018 04:00:00 11,9 10,1 9 5 NNE 1025,4 19 0,0
18.04.2018 03:00:00 12,1 10,2 9 5 NNE 1025,7 19 0,0
18.04.2018 02:00:00 12,7 10,4 9 5 NE 1025,5 20 -
18.04.2018 01:00:00 13,3 10,7 9 5 NNE 1025,3 20 0,0
18.04.2018 00:00:00 14,4 11,4 9 5 NNE 1024,7 20 0,0
17.04.2018 23:00:00 15,2 11,8 5 3 NE 1024,4 20 -
17.04.2018 22:00:00 17,0 12,1 5 3 NNE 1023,6 18 0,0
17.04.2018 21:00:00 19,5 11,8 5 3 NE 1022,7 18 0,0
17.04.2018 20:00:00 22,6 11,0 4 2 WNW 1022,1 55 -
17.04.2018 19:00:00 22,9 11,3 5 3 SW 1021,9 20 0,0
17.04.2018 18:00:00 22,7 11,4 8 4 SW 1021,8 20 0,0
17.04.2018 17:00:00 22,3 11,4 5 3 WSW 1022,1 20 -
17.04.2018 16:00:00 21,7 11,7 8 4 WSW 1022,5 20 0,0
17.04.2018 15:00:00 20,7 10,8 8 4 WSW 1023,0 20 0,0
17.04.2018 14:00:00 19,8 11,3 8 4 W 1023,4 50 -
17.04.2018 13:00:00 18,1 10,0 9 5 W 1024,3 20 0,0
17.04.2018 12:00:00 16,6 10,9 8 4 W 1024,6 20 0,0
17.04.2018 11:00:00 14,3 10,9 5 3 SW 1024,8 20 -
17.04.2018 10:00:00 12,5 9,9 8 4 SW 1024,7 19 0,0
17.04.2018 09:00:00 10,3 9,5 4 2 SSW 1024,5 14 0,0
17.04.2018 08:00:00 7,9 7,8 2 1 SW 1023,9 9 -
17.04.2018 07:00:00 7,4 6,8 2 1 NNW 1023,3 13 0,0
17.04.2018 06:00:00 8,1 7,7 5 3 SW 1023,0 16 0,0
17.04.2018 05:00:00 8,6 8,2 2 1 SW 1022,9 14 -
17.04.2018 04:00:00 9,1 8,3 4 2 S 1022,5 10 0,0
17.04.2018 03:00:00 10,0 9,1 5 3 SSW 1022,0 12 0,0

tt = Température de l'air
td = dewpoint
ff = Vitesse du vent
dd = Direction du vent
ppp = reduced air pressure
vv = visibility
rr = Quantités de précipitations

stations d'obs. à proximité